Location: Bratislava
(48.1500°N, 17.1170°E)
Time: 17:08:09
(UTC+02:00)

N. Korean satellite - Pass Details

Date: 02 February 2019
Orbit: 457 x 508 km, 97.2° (Epoch: 17 April)

Event Time Altitude Azimuth Distance (km) Brightness Sun altitude
Rises 05:11:43 0° 27° (NNE) 2,591 10.6 -21.4°
Reaches altitude 10° 05:14:23 10° 48° (NE) 1,691 9.9 -20.9°
Maximum altitude 05:16:52 17° 91° (E) 1,285 9.7 -20.5°
Drops below altitude 10° 05:19:19 10° 135° (SE) 1,660 9.9 -20.1°
Sets 05:21:53 0° 155° (SSE) 2,521 10.6 -19.7°
